Regional Weather Roundup
Issued by NWS Albany, NY

Home | Current Version | Previous Version | Text Only | Print | Product List | Glossary On
Versions: 1 2 3 4 5 6 7 8 9 10 11 12 13 14 15 16 17 18 19 20 21 22 23 24 25 26 27 28 29 30 31 32 33 34 35 36 37 38 39 40 41 42 43 44 45 46 47 48 49 50
000
ASUS41 KALY 230110
RWRALY

NEW YORK STATE HOURLY WEATHER ROUNDUP
NATIONAL WEATHER SERVICE ALBANY NY
900 PM EDT TUE JUL 22 2014

NOTE: "FAIR" INDICATES FEW OR NO CLOUDS BELOW 12,000 FEET WITH NO
SIGNIFICANT WEATHER AND/OR NO OBSTRUCTIONS TO VISIBILITY.

NYZ032-033-038>043-046>054-057>066-NYZ062>081-230200-
EAST


CITY           SKY/WX    TMP DP  RH WIND       PRES   REMARKS
ALBANY         PTCLDY    82  70  66 S7        29.99S
GLENS FALLS    CLEAR     78  70  76 S3        29.98S
POUGHKEEPSIE   CLEAR     80  69  69 S3        30.03S
NEWBURGH       PTCLDY    79  70  73 SW7       30.06F
MONTGOMERY     CLEAR     76  69  79 S3        30.04S
WHITE PLAINS   CLEAR     74  65  73 S5        30.07F
ISLIP          CLEAR     75  64  68 SW9       30.07F
NEW YORK CITY  PTCLDY    79  66  64 S10       30.06S
CENTRAL PARK   CLEAR     79  66  64 VRB5      30.09S
$$

NYZ005>009-017-018-044>046-055-056-230200-
CENTRAL


CITY           SKY/WX    TMP DP  RH WIND       PRES   REMARKS
FULTON         CLEAR     75  70  84 CALM      29.98R
SYRACUSE       MOCLDY    84  69  60 S6        29.97S
ROME           MOCLDY    79  70  74 E3        29.99F
ELMIRA         CLEAR     81  70  69 SW6       30.02F
BINGHAMTON     CLEAR     76  67  73 SW7       30.08S
MONTICELLO     CLEAR     75  68  78 S5        30.10F
$$

NYZ026>034-041>043-230200-
NORTH


CITY           SKY/WX    TMP DP  RH WIND       PRES   REMARKS
WATERTOWN      CLEAR     75  62  64 S3        29.96F
FORT DRUM      NOT AVBL
MASSENA        PTCLDY    73  65  75 SW6       29.94S
SARANAC LAKE   MOCLDY    70  62  76 SW3       30.02S
PLATTSBURGH    MOCLDY    75  71  87 CALM      29.93S
$$

NYZ001>004-010>016-019>021-230200-
WEST


CITY           SKY/WX    TMP DP  RH WIND       PRES   REMARKS
BUFFALO        CLEAR     78  62  57 SW7       29.98F
DUNKIRK        CLEAR     74  67  78 SW3       30.00S
JAMESTOWN      PTCLDY    75  66  73 S6        30.06F
WELLSVILLE     CLEAR     78  62  57 SW7       30.10F
ROCHESTER      CLEAR     80  67  64 SW3       29.98F
PENN YAN       PTCLDY    80  71  74 SW6       30.01F
$$

             KEY
       WCI = WIND CHILL INDEX
       VSB = VISIBILITY
       HX  = HEAT INDEX
$$



USA.gov is the U.S. government's official web portal to all federal, state and local government web resources and services.